| time (UTC) | temp C | wind direction | speed KPH | gust KPH | rain 1hr cm | rain 24hr cm | rain mn cm | humidity % | barometer mb |
| 20260906225624 | 16 | 320 | 12.9 | 17.7 | 0.00 | 0.05 | 0.05 | 86 | 1015.4 |
| 20260906225120 | 16 | 286 | 4.8 | 12.9 | 0.00 | 0.05 | 0.05 | 87 | 1015.5 |
| 20260906224615 | 16 | 304 | 8.0 | 16.1 | 0.00 | 0.05 | 0.05 | 87 | 1015.7 |
| 20260906224112 | 15 | 287 | 4.8 | 14.5 | 0.00 | 0.05 | 0.05 | 87 | 1015.6 |
| 20260906223608 | 15 | 314 | 9.7 | 14.5 | 0.00 | 0.05 | 0.05 | 87 | 1015.7 |
| 20260906223107 | 15 | 279 | 11.3 | 12.9 | 0.00 | 0.05 | 0.05 | 87 | 1015.5 |
| 20260906222606 | 15 | 288 | 8.0 | 16.1 | 0.00 | 0.05 | 0.05 | 88 | 1015.5 |
| 20260906222104 | 15 | 320 | 8.0 | 16.1 | 0.00 | 0.05 | 0.05 | 87 | 1015.5 |
| 20260906221602 | 15 | 316 | 6.4 | 16.1 | 0.00 | 0.05 | 0.05 | 87 | 1015.5 |
| 20260906221058 | 15 | 351 | 4.8 | 12.9 | 0.00 | 0.05 | 0.05 | 87 | 1015.6 |
| 20260906220552 | 15 | 321 | 12.9 | 16.1 | 0.00 | 0.05 | 0.05 | 87 | 1015.7 |
| 20260906220048 | 15 | 326 | 8.0 | 11.3 | 0.00 | 0.05 | 0.05 | 88 | 1015.7 |
| 20260906215547 | 15 | 300 | 11.3 | 16.1 | 0.00 | 0.05 | 0.05 | 88 | 1015.5 |
| 20260906215045 | 15 | 314 | 8.0 | 14.5 | 0.00 | 0.05 | 0.05 | 88 | 1015.5 |
| 20260906214544 | 15 | 350 | 11.3 | 16.1 | 0.00 | 0.05 | 0.05 | 87 | 1015.4 |
| 20260906214039 | 15 | 307 | 8.0 | 14.5 | 0.00 | 0.05 | 0.05 | 87 | 1015.6 |
| 20260906213538 | 15 | 323 | 11.3 | 14.5 | 0.00 | 0.05 | 0.05 | 87 | 1015.5 |
| 20260906213033 | 15 | 316 | 9.7 | 16.1 | 0.00 | 0.05 | 0.05 | 87 | 1015.5 |
| 20260906212526 | 15 | 319 | 8.0 | 16.1 | 0.00 | 0.05 | 0.05 | 87 | 1015.6 |
| 20260906212022 | 15 | 337 | 8.0 | 14.5 | 0.00 | 0.05 | 0.05 | 87 | 1015.6 |
| 20260906211516 | 15 | 349 | 12.9 | 16.1 | 0.00 | 0.05 | 0.05 | 87 | 1015.5 |
| 20260906211011 | 15 | 314 | 3.2 | 17.7 | 0.00 | 0.05 | 0.05 | 87 | 1015.7 |
| 20260906210501 | 15 | 322 | 14.5 | 24.1 | 0.00 | 0.05 | 0.05 | 86 | 1015.6 |
| 20260906210000 | 16 | 335 | 14.5 | 20.9 | 0.00 | 0.05 | 0.05 | 86 | 1015.5 |
| 20260906205456 | 15 | 348 | 14.5 | 20.9 | 0.00 | 0.05 | 0.05 | 86 | 1015.6 |
| 20260906204952 | 15 | 286 | 17.7 | 22.5 | 0.00 | 0.05 | 0.05 | 86 | 1015.5 |
| 20260906204451 | 15 | 286 | 17.7 | 22.5 | 0.00 | 0.05 | 0.05 | 87 | 1015.6 |
| 20260906203950 | 15 | 341 | 12.9 | 22.5 | 0.00 | 0.05 | 0.05 | 87 | 1015.6 |
| 20260906203446 | 15 | 309 | 16.1 | 20.9 | 0.00 | 0.05 | 0.05 | 86 | 1015.6 |
| 20260906202944 | 15 | 338 | 11.3 | 20.9 | 0.00 | 0.05 | 0.05 | 87 | 1015.7 |
| 20260906202442 | 15 | 325 | 17.7 | 22.5 | 0.00 | 0.05 | 0.05 | 87 | 1015.6 |
| 20260906201938 | 15 | 349 | 9.7 | 20.9 | 0.00 | 0.05 | 0.05 | 86 | 1015.8 |
| 20260906201432 | 15 | 329 | 9.7 | 16.1 | 0.00 | 0.05 | 0.05 | 87 | 1015.7 |
| 20260906200927 | 15 | 321 | 9.7 | 16.1 | 0.00 | 0.05 | 0.05 | 87 | 1015.7 |
| 20260906200424 | 15 | 340 | 16.1 | 20.9 | 0.00 | 0.05 | 0.05 | 87 | 1015.6 |
| 20260906195923 | 15 | 339 | 16.1 | 24.1 | 0.00 | 0.05 | 0.05 | 87 | 1015.7 |
| 20260906195420 | 15 | 319 | 16.1 | 17.7 | 0.00 | 0.05 | 0.05 | 86 | 1015.8 |
| 20260906194916 | 15 | 342 | 14.5 | 22.5 | 0.00 | 0.05 | 0.05 | 86 | 1015.8 |
| 20260906194411 | 15 | 350 | 12.9 | 22.5 | 0.00 | 0.05 | 0.05 | 85 | 1015.7 |
| 20260906193906 | 16 | 4 | 9.7 | 22.5 | 0.00 | 0.05 | 0.05 | 85 | 1015.8 |
| 20260906193401 | 16 | 339 | 14.5 | 17.7 | 0.00 | 0.05 | 0.05 | 84 | 1015.7 |
| 20260906192856 | 16 | 357 | 14.5 | 20.9 | 0.00 | 0.05 | 0.05 | 84 | 1015.7 |
| 20260906192350 | 15 | 5 | 14.5 | 24.1 | 0.00 | 0.05 | 0.05 | 83 | 1015.8 |
| 20260906191850 | 15 | 335 | 17.7 | 22.5 | 0.00 | 0.05 | 0.05 | 83 | 1015.6 |
| 20260906191345 | 15 | 348 | 16.1 | 20.9 | 0.00 | 0.05 | 0.05 | 83 | 1015.6 |
| 20260906190844 | 16 | 335 | 17.7 | 22.5 | 0.00 | 0.05 | 0.05 | 83 | 1015.8 |
| 20260906190344 | 15 | 23 | 14.5 | 24.1 | 0.00 | 0.05 | 0.05 | 84 | 1015.7 |
| 20260906185839 | 15 | 2 | 16.1 | 24.1 | 0.00 | 0.05 | 0.05 | 83 | 1015.9 |
| 20260906185337 | 15 | 7 | 14.5 | 24.1 | 0.00 | 0.05 | 0.05 | 85 | 1016.2 |
| 20260906184832 | 15 | 357 | 12.9 | 20.9 | 0.00 | 0.05 | 0.05 | 86 | 1016.2 |
| 20260906184327 | 15 | 8 | 12.9 | 24.1 | 0.00 | 0.05 | 0.05 | 85 | 1016.3 |
| 20260906183822 | 14 | 344 | 14.5 | 24.1 | 0.00 | 0.05 | 0.05 | 87 | 1016.1 |
| 20260906183319 | 14 | 359 | 9.7 | 17.7 | 0.00 | 0.05 | 0.05 | 88 | 1016.4 |
| 20260906182819 | 14 | 345 | 14.5 | 24.1 | 0.00 | 0.05 | 0.05 | 88 | 1016.3 |
| 20260906182314 | 14 | 9 | 19.3 | 22.5 | 0.00 | 0.05 | 0.05 | 88 | 1016.5 |
| 20260906181814 | 13 | 348 | 12.9 | 22.5 | 0.00 | 0.05 | 0.05 | 90 | 1016.6 |
| 20260906181311 | 13 | 353 | 16.1 | 22.5 | 0.00 | 0.05 | 0.05 | 90 | 1016.6 |
| 20260906180806 | 13 | 14 | 12.9 | 20.9 | 0.00 | 0.05 | 0.05 | 91 | 1016.6 |
| 20260906180301 | 13 | 12 | 1.6 | 20.9 | 0.00 | 0.05 | 0.05 | 92 | 1017.0 |
| 20260906175758 | 13 | 326 | 12.9 | 16.1 | 0.00 | 0.05 | 0.05 | 92 | 1017.5 |
| 20260906175254 | 12 | 355 | 11.3 | 14.5 | 0.00 | 0.05 | 0.05 | 92 | 1017.6 |
| 20260906174752 | 12 | 340 | 11.3 | 20.9 | 0.00 | 0.05 | 0.05 | 92 | 1017.9 |
| 20260906174252 | 12 | 303 | 17.7 | 17.7 | 0.00 | 0.05 | 0.05 | 93 | 1017.9 |
| 20260906173747 | 12 | 334 | 14.5 | 17.7 | 0.00 | 0.05 | 0.05 | 93 | 1017.8 |
| 20260906173243 | 12 | 306 | 12.9 | 20.9 | 0.00 | 0.05 | 0.05 | 93 | 1018.3 |
| 20260906172742 | 12 | 312 | 11.3 | 20.9 | 0.00 | 0.05 | 0.05 | 93 | 1018.3 |
| 20260906172237 | 12 | 345 | 12.9 | 20.9 | 0.00 | 0.05 | 0.05 | 94 | 1018.0 |
| 20260906171732 | 12 | 338 | 4.8 | 17.7 | 0.00 | 0.05 | 0.05 | 94 | 1018.1 |
| 20260906171228 | 12 | 322 | 3.2 | 20.9 | 0.00 | 0.05 | 0.05 | 94 | 1018.1 |
| 20260906170723 | 12 | 315 | 14.5 | 22.5 | 0.00 | 0.05 | 0.05 | 94 | 1018.3 |
| 20260906170219 | 12 | 307 | 8.0 | 17.7 | 0.00 | 0.05 | 0.05 | 94 | 1018.4 |
| 20260906165715 | 12 | 316 | 14.5 | 20.9 | 0.00 | 0.05 | 0.05 | 94 | 1017.9 |
| 20260906165210 | 12 | 339 | 14.5 | 17.7 | 0.00 | 0.05 | 0.05 | 94 | 1018.0 |
| 20260906164709 | 12 | 341 | 8.0 | 20.9 | 0.00 | 0.05 | 0.05 | 94 | 1017.7 |
| 20260906164204 | 12 | 2 | 17.7 | 25.7 | 0.18 | 0.05 | 0.05 | 94 | 1017.9 |
| 20260906163700 | 12 | 347 | 12.9 | 17.7 | 0.18 | 0.05 | 0.05 | 94 | 1017.7 |
| 20260906163156 | 12 | 318 | 14.5 | 22.5 | 0.00 | 0.03 | 0.03 | 94 | 1017.9 |
| 20260906162653 | 12 | 303 | 14.5 | 20.9 | 0.13 | 0.03 | 0.03 | 93 | 1018.0 |
| 20260906162152 | 12 | 338 | 11.3 | 17.7 | 0.13 | 0.03 | 0.03 | 93 | 1018.0 |
| 20260906161647 | 12 | 327 | 16.1 | 22.5 | 0.00 | 0.00 | 0.00 | 93 | 1018.3 |
| 20260906161146 | 12 | 337 | 16.1 | 25.7 | 0.00 | 0.00 | 0.00 | 92 | 1018.0 |
| 20260906160645 | 12 | 313 | 14.5 | 24.1 | 0.00 | 0.00 | 0.00 | 92 | 1018.3 |
| 20260906160144 | 12 | 348 | 14.5 | 27.4 | 0.00 | 0.00 | 0.00 | 92 | 1018.1 |
| 20260906155642 | 12 | 301 | 19.3 | 29.0 | 0.00 | 0.00 | 0.00 | 91 | 1018.4 |
| 20260906155138 | 12 | 317 | 11.3 | 29.0 | 0.00 | 0.00 | 0.00 | 91 | 1018.7 |
| 20260906154632 | 12 | 312 | 20.9 | 25.7 | 0.00 | 0.00 | 0.00 | 91 | 1018.5 |
| 20260906154127 | 12 | 298 | 16.1 | 25.7 | 0.00 | 0.00 | 0.00 | 91 | 1018.3 |
| 20260906153626 | 12 | 298 | 20.9 | 32.2 | 0.00 | 0.00 | 0.00 | 91 | 1017.8 |
| 20260906153121 | 12 | 325 | 17.7 | 27.4 | 0.00 | 0.00 | 0.00 | 91 | 1018.3 |
| 20260906152621 | 12 | 344 | 17.7 | 32.2 | 0.00 | 0.00 | 0.00 | 92 | 1018.4 |
| 20260906152115 | 12 | 295 | 19.3 | 27.4 | 0.00 | 0.00 | 0.00 | 92 | 1018.5 |
| 20260906151610 | 12 | 317 | 19.3 | 27.4 | 0.00 | 0.00 | 0.00 | 92 | 1018.5 |
| 20260906151106 | 13 | 286 | 16.1 | 20.9 | 0.00 | 0.00 | 0.00 | 92 | 1018.6 |
| 20260906150601 | 13 | 323 | 22.5 | 25.7 | 0.00 | 0.00 | 0.00 | 92 | 1018.4 |
| 20260906150056 | 13 | 288 | 19.3 | 25.7 | 0.00 | 0.00 | 0.00 | 93 | 1018.3 |
| 20260906145555 | 13 | 307 | 12.9 | 14.5 | 0.00 | 0.00 | 0.00 | 93 | 1018.3 |
| 20260906145050 | 13 | 312 | 1.6 | 8.0 | 0.00 | 0.00 | 0.00 | 93 | 1018.5 |
| 20260906144538 | 13 | 306 | 0.0 | 0.0 | 0.00 | 0.00 | 0.00 | 93 | 1018.3 |
| 20260906144034 | 13 | 346 | 0.0 | 4.8 | 0.00 | 0.00 | 0.00 | 93 | 1018.3 |
| 20260906143528 | 13 | 354 | 3.2 | 11.3 | 0.00 | 0.00 | 0.00 | 93 | 1017.9 |
| 20260906143025 | 13 | 349 | 8.0 | 11.3 | 0.00 | 0.00 | 0.00 | 93 | 1018.0 |
| 20260906142519 | 13 | 354 | 1.6 | 3.2 | 0.00 | 0.00 | 0.00 | 93 | 1018.1 |
| 20260906142015 | 13 | 328 | 3.2 | 8.0 | 0.00 | 0.00 | 0.00 | 93 | 1018.1 |
| 20260906141513 | 13 | 310 | 8.0 | 11.3 | 0.00 | 0.00 | 0.00 | 93 | 1018.5 |
| 20260906141009 | 13 | 295 | 9.7 | 14.5 | 0.00 | 0.00 | 0.00 | 93 | 1018.6 |
| 20260906140503 | 13 | 307 | 8.0 | 12.9 | 0.00 | 0.00 | 0.00 | 93 | 1018.3 |
| 20260906140002 | 13 | 307 | 12.9 | 14.5 | 0.00 | 0.00 | 0.00 | 93 | 1018.1 |
| 20260906135459 | 13 | 325 | 4.8 | 11.3 | 0.00 | 0.00 | 0.00 | 93 | 1018.0 |
| 20260906134955 | 13 | 331 | 8.0 | 11.3 | 0.00 | 0.00 | 0.00 | 93 | 1017.9 |
| 20260906134450 | 13 | 313 | 1.6 | 4.8 | 0.00 | 0.00 | 0.00 | 94 | 1018.0 |
| 20260906133945 | 13 | 311 | 0.0 | 8.0 | 0.00 | 0.00 | 0.00 | 93 | 1017.9 |
| 20260906133441 | 13 | 279 | 0.0 | 4.8 | 0.00 | 0.00 | 0.00 | 93 | 1018.1 |
| 20260906132936 | 13 | 309 | 4.8 | 16.1 | 0.00 | 0.00 | 0.00 | 93 | 1018.1 |
| 20260906132431 | 13 | 334 | 12.9 | 14.5 | 0.00 | 0.00 | 0.00 | 93 | 1018.1 |
| 20260906131927 | 13 | 328 | 11.3 | 16.1 | 0.00 | 0.00 | 0.00 | 92 | 1018.1 |
| 20260906131422 | 13 | 331 | 0.0 | 9.7 | 0.00 | 0.00 | 0.00 | 92 | 1018.3 |
| 20260906130918 | 13 | 357 | 4.8 | 17.7 | 0.00 | 0.00 | 0.00 | 92 | 1018.3 |
| 20260906130416 | 13 | 9 | 1.6 | 14.5 | 0.00 | 0.00 | 0.00 | 93 | 1017.9 |
| 20260906125911 | 13 | 354 | 12.9 | 14.5 | 0.00 | 0.00 | 0.00 | 94 | 1018.1 |
| 20260906125408 | 13 | 10 | 8.0 | 14.5 | 0.00 | 0.00 | 0.00 | 94 | 1018.1 |
| 20260906124903 | 12 | 18 | 4.8 | 8.0 | 0.00 | 0.00 | 0.00 | 95 | 1017.9 |
| 20260906124359 | 12 | 348 | 0.0 | 0.0 | 0.00 | 0.00 | 0.00 | 95 | 1018.3 |
| 20260906123858 | 12 | 298 | 0.0 | 1.6 | 0.00 | 0.00 | 0.00 | 95 | 1018.3 |
| 20260906123353 | 12 | 319 | 0.0 | 3.2 | 0.00 | 0.00 | 0.00 | 95 | 1018.4 |
| 20260906122852 | 12 | 320 | 4.8 | 9.7 | 0.00 | 0.00 | 0.00 | 95 | 1018.4 |
| 20260906122347 | 12 | 308 | 0.0 | 0.0 | 0.00 | 0.00 | 0.00 | 95 | 1018.7 |
| 20260906121844 | 12 | 294 | 0.0 | 0.0 | 0.00 | 0.00 | 0.00 | 95 | 1018.8 |
| 20260906121340 | 12 | 283 | 0.0 | 0.0 | 0.00 | 0.00 | 0.00 | 95 | 1018.7 |
| 20260906120836 | 12 | 305 | 0.0 | 0.0 | 0.00 | 0.00 | 0.00 | 95 | 1018.6 |
| 20260906120331 | 12 | 296 | 0.0 | 0.0 | 0.00 | 0.00 | 0.00 | 95 | 1018.7 |
| 20260906115827 | 12 | 304 | 0.0 | 3.2 | 0.00 | 0.00 | 0.00 | 95 | 1018.7 |
| 20260906115323 | 12 | 296 | 0.0 | 4.8 | 0.00 | 0.00 | 0.00 | 95 | 1018.8 |
| 20260906114822 | 12 | 308 | 0.0 | 0.0 | 0.00 | 0.00 | 0.00 | 95 | 1018.7 |
| 20260906114317 | 12 | 312 | 0.0 | 0.0 | 0.00 | 0.00 | 0.00 | 95 | 1018.5 |
| 20260906113812 | 12 | 349 | 0.0 | 0.0 | 0.00 | 0.00 | 0.00 | 95 | 1018.6 |
| 20260906113311 | 12 | 324 | 4.8 | 9.7 | 0.00 | 0.00 | 0.00 | 95 | 1018.5 |
| 20260906112807 | 12 | 10 | 6.4 | 12.9 | 0.00 | 0.00 | 0.00 | 95 | 1018.3 |
| 20260906112306 | 12 | 1 | 0.0 | 3.2 | 0.00 | 0.00 | 0.00 | 94 | 1018.6 |
| 20260906111803 | 12 | 351 | 1.6 | 9.7 | 0.00 | 0.00 | 0.00 | 94 | 1018.4 |
| 20260906111301 | 12 | 11 | 1.6 | 9.7 | 0.00 | 0.00 | 0.00 | 94 | 1018.1 |
| 20260906110757 | 12 | 351 | 3.2 | 11.3 | 0.00 | 0.00 | 0.00 | 94 | 1018.5 |
| 20260906110253 | 12 | 322 | 11.3 | 14.5 | 0.00 | 0.00 | 0.00 | 94 | 1018.3 |
| 20260906105751 | 12 | 299 | 9.7 | 14.5 | 0.00 | 0.00 | 0.00 | 94 | 1018.6 |
| 20260906105242 | 12 | 340 | 12.9 | 16.1 | 0.00 | 0.00 | 0.00 | 94 | 1018.5 |
| 20260906104737 | 12 | 345 | 0.0 | 12.9 | 0.00 | 0.00 | 0.00 | 94 | 1018.7 |
| 20260906104236 | 12 | 317 | 3.2 | 12.9 | 0.00 | 0.00 | 0.00 | 94 | 1018.5 |
| 20260906103734 | 12 | 315 | 8.0 | 14.5 | 0.00 | 0.00 | 0.00 | 94 | 1018.6 |
| 20260906103228 | 12 | 345 | 8.0 | 17.7 | 0.00 | 0.00 | 0.00 | 94 | 1018.5 |
| 20260906102724 | 12 | 3 | 17.7 | 22.5 | 0.00 | 0.00 | 0.00 | 94 | 1018.6 |
| 20260906102223 | 12 | 6 | 19.3 | 22.5 | 0.00 | 0.00 | 0.00 | 94 | 1018.7 |
| 20260906101718 | 12 | 342 | 17.7 | 22.5 | 0.00 | 0.00 | 0.00 | 94 | 1018.7 |
| 20260906101213 | 12 | 8 | 24.1 | 33.8 | 0.00 | 0.00 | 0.00 | 94 | 1018.6 |
| 20260906100709 | 12 | 350 | 17.7 | 27.4 | 0.00 | 0.00 | 0.00 | 94 | 1018.6 |
| 20260906100209 | 12 | 7 | 14.5 | 32.2 | 0.00 | 0.00 | 0.00 | 94 | 1018.5 |
| 20260906095703 | 12 | 10 | 22.5 | 27.4 | 0.00 | 0.00 | 0.00 | 94 | 1018.5 |
| 20260906095159 | 12 | 342 | 19.3 | 24.1 | 0.00 | 0.00 | 0.00 | 94 | 1018.5 |
| 20260906094657 | 12 | 309 | 14.5 | 25.7 | 0.00 | 0.00 | 0.00 | 94 | 1018.7 |
| 20260906094153 | 12 | 0 | 14.5 | 17.7 | 0.00 | 0.00 | 0.00 | 94 | 1019.1 |
| 20260906093649 | 12 | 324 | 9.7 | 22.5 | 0.00 | 0.00 | 0.00 | 94 | 1019.0 |
| 20260906093150 | 12 | 341 | 11.3 | 24.1 | 0.00 | 0.00 | 0.00 | 94 | 1019.2 |
| 20260906092644 | 12 | 352 | 12.9 | 22.5 | 0.00 | 0.00 | 0.00 | 94 | 1019.2 |
| 20260906092139 | 12 | 349 | 14.5 | 25.7 | 0.00 | 0.00 | 0.00 | 94 | 1019.2 |
| 20260906091635 | 12 | 310 | 11.3 | 17.7 | 0.00 | 0.00 | 0.00 | 94 | 1019.4 |
| 20260906091132 | 12 | 328 | 9.7 | 24.1 | 0.00 | 0.00 | 0.00 | 94 | 1019.5 |
| 20260906090627 | 12 | 332 | 14.5 | 17.7 | 0.00 | 0.00 | 0.00 | 94 | 1019.2 |
| 20260906090126 | 12 | 11 | 16.1 | 27.4 | 0.00 | 0.00 | 0.00 | 94 | 1019.2 |
| 20260906085626 | 12 | 7 | 19.3 | 29.0 | 0.00 | 0.00 | 0.00 | 94 | 1019.4 |
| 20260906085120 | 12 | 329 | 20.9 | 29.0 | 0.00 | 0.00 | 0.00 | 94 | 1019.5 |
| 20260906084615 | 12 | 338 | 22.5 | 27.4 | 0.00 | 0.00 | 0.00 | 94 | 1019.5 |
| 20260906084114 | 12 | 341 | 12.9 | 17.7 | 0.00 | 0.00 | 0.00 | 94 | 1019.5 |
| 20260906083610 | 12 | 333 | 8.0 | 25.7 | 0.00 | 0.00 | 0.00 | 94 | 1019.6 |
| 20260906083109 | 12 | 317 | 12.9 | 24.1 | 0.00 | 0.00 | 0.00 | 94 | 1019.6 |
| 20260906082605 | 12 | 332 | 14.5 | 20.9 | 0.00 | 0.00 | 0.00 | 94 | 1019.7 |
| 20260906082100 | 12 | 341 | 11.3 | 17.7 | 0.00 | 0.00 | 0.00 | 94 | 1019.7 |
| 20260906081556 | 12 | 335 | 11.3 | 17.7 | 0.00 | 0.00 | 0.00 | 94 | 1019.7 |
| 20260906081051 | 12 | 310 | 11.3 | 17.7 | 0.00 | 0.00 | 0.00 | 94 | 1019.6 |
| 20260906080548 | 12 | 333 | 17.7 | 22.5 | 0.00 | 0.00 | 0.00 | 94 | 1019.8 |
| 20260906080043 | 12 | 339 | 14.5 | 17.7 | 0.00 | 0.00 | 0.00 | 94 | 1019.7 |
| 20260906075537 | 12 | 280 | 12.9 | 17.7 | 0.00 | 0.00 | 0.00 | 94 | 1019.7 |
| 20260906075032 | 12 | 343 | 12.9 | 20.9 | 0.00 | 0.00 | 0.00 | 94 | 1019.8 |
| 20260906074527 | 12 | 341 | 9.7 | 14.5 | 0.00 | 0.00 | 0.00 | 94 | 1019.7 |
| 20260906074025 | 12 | 325 | 8.0 | 12.9 | 0.00 | 0.00 | 0.00 | 94 | 1020.0 |
| 20260906073521 | 12 | 306 | 8.0 | 16.1 | 0.00 | 0.00 | 0.00 | 94 | 1020.0 |
| 20260906073017 | 12 | 310 | 4.8 | 17.7 | 0.00 | 0.00 | 0.00 | 93 | 1020.2 |
| 20260906072511 | 12 | 301 | 4.8 | 16.1 | 0.00 | 0.00 | 0.00 | 93 | 1020.1 |
| 20260906072008 | 12 | 4 | 14.5 | 24.1 | 0.00 | 0.00 | 0.00 | 93 | 1020.0 |
| 20260906071503 | 12 | 352 | 12.9 | 20.9 | 0.00 | 0.00 | 0.00 | 93 | 1020.3 |
| 20260906070958 | 12 | 335 | 14.5 | 17.7 | 0.00 | 0.00 | 0.00 | 93 | 1020.1 |
| 20260906070454 | 12 | 342 | 16.1 | 24.1 | 0.00 | 0.00 | 0.00 | 93 | 1020.5 |
| 20260906065950 | 12 | 319 | 14.5 | 20.9 | 0.00 | 0.00 | 0.00 | 93 | 1020.6 |
| 20260906065444 | 12 | 322 | 6.4 | 16.1 | 0.00 | 0.00 | 0.00 | 94 | 1020.7 |
| 20260906064939 | 12 | 301 | 14.5 | 17.7 | 0.00 | 0.00 | 0.00 | 94 | 1020.6 |
| 20260906064435 | 12 | 321 | 14.5 | 17.7 | 0.00 | 0.00 | 0.00 | 94 | 1020.9 |
| 20260906063930 | 12 | 324 | 14.5 | 16.1 | 0.00 | 0.00 | 0.00 | 93 | 1020.9 |
| 20260906063426 | 12 | 315 | 14.5 | 22.5 | 0.00 | 0.00 | 0.00 | 93 | 1021.0 |
| 20260906062921 | 12 | 302 | 12.9 | 17.7 | 0.00 | 0.00 | 0.00 | 93 | 1021.0 |
| 20260906062421 | 12 | 314 | 12.9 | 17.7 | 0.00 | 0.00 | 0.00 | 93 | 1020.5 |
| 20260906061915 | 12 | 334 | 14.5 | 22.5 | 0.00 | 0.00 | 0.00 | 93 | 1020.2 |
| 20260906061406 | 12 | 336 | 14.5 | 20.9 | 0.00 | 0.00 | 0.00 | 93 | 1020.2 |
| 20260906060900 | 12 | 319 | 17.7 | 22.5 | 0.00 | 0.00 | 0.00 | 93 | 1020.3 |
| 20260906060358 | 12 | 328 | 12.9 | 20.9 | 0.00 | 0.00 | 0.00 | 92 | 1020.3 |
| 20260906055854 | 12 | 4 | 19.3 | 24.1 | 0.00 | 0.33 | 0.33 | 93 | 1020.2 |
| 20260906055349 | 12 | 334 | 11.3 | 20.9 | 0.00 | 0.33 | 0.33 | 93 | 1020.3 |
| 20260906054844 | 12 | 336 | 11.3 | 14.5 | 0.00 | 0.33 | 0.33 | 93 | 1020.5 |
| 20260906054339 | 12 | 338 | 6.4 | 16.1 | 0.30 | 0.33 | 0.33 | 93 | 1020.3 |
| 20260906053836 | 12 | 345 | 1.6 | 11.3 | 0.61 | 0.33 | 0.33 | 92 | 1020.3 |
| 20260906053331 | 12 | 326 | 11.3 | 20.9 | 0.13 | 0.25 | 0.25 | 92 | 1020.2 |
| 20260906052826 | 12 | 328 | 17.7 | 24.1 | 0.00 | 0.23 | 0.23 | 91 | 1020.1 |
| 20260906052323 | 12 | 277 | 12.9 | 22.5 | 0.00 | 0.23 | 0.23 | 92 | 1021.4 |
| 20260906051820 | 12 | 252 | 11.3 | 17.7 | 0.00 | 0.23 | 0.23 | 91 | 1021.7 |
| 20260906051319 | 12 | 301 | 6.4 | 12.9 | 0.00 | 0.23 | 0.23 | 91 | 1020.8 |
| 20260906050815 | 12 | 312 | 9.7 | 16.1 | 0.00 | 0.23 | 0.23 | 91 | 1020.6 |
| 20260906050310 | 12 | 325 | 8.0 | 14.5 | 0.18 | 0.23 | 0.23 | 91 | 1020.0 |
| 20260906045808 | 12 | 347 | 3.2 | 20.9 | 0.00 | 0.20 | 0.20 | 91 | 1020.0 |
| 20260906045305 | 12 | 336 | 12.9 | 20.9 | 0.00 | 0.20 | 0.20 | 92 | 1019.7 |
| 20260906044759 | 12 | 298 | 8.0 | 12.9 | 0.00 | 0.20 | 0.20 | 91 | 1019.9 |
| 20260906044254 | 12 | 310 | 12.9 | 22.5 | 0.00 | 0.20 | 0.20 | 91 | 1020.1 |
| 20260906043750 | 12 | 323 | 14.5 | 24.1 | 0.00 | 0.20 | 0.20 | 90 | 1019.8 |
| 20260906043246 | 13 | 351 | 9.7 | 17.7 | 0.00 | 0.20 | 0.20 | 90 | 1020.0 |
| 20260906042745 | 13 | 348 | 14.5 | 20.9 | 0.00 | 0.20 | 0.20 | 89 | 1020.0 |
| 20260906042244 | 12 | 346 | 11.3 | 17.7 | 0.00 | 0.20 | 0.20 | 90 | 1019.7 |
| 20260906041740 | 12 | 322 | 9.7 | 17.7 | 0.00 | 0.20 | 0.20 | 89 | 1019.8 |
| 20260906041235 | 13 | 278 | 17.7 | 27.4 | 0.43 | 0.20 | 0.20 | 88 | 1019.5 |
| 20260906040731 | 13 | 340 | 24.1 | 35.4 | 0.48 | 0.18 | 0.18 | 85 | 1019.7 |
| 20260906040226 | 14 | 323 | 12.9 | 17.7 | 0.00 | 0.10 | 0.10 | 81 | 1021.2 |
| 20260906035721 | 14 | 282 | 4.8 | 12.9 | 0.00 | 0.10 | 0.10 | 79 | 1021.8 |
| 20260906035217 | 13 | 294 | 3.2 | 11.3 | 0.00 | 0.10 | 0.10 | 79 | 1021.3 |
| 20260906034716 | 13 | 286 | 9.7 | 17.7 | 0.00 | 0.10 | 0.10 | 80 | 1020.7 |
| 20260906034211 | 13 | 314 | 11.3 | 16.1 | 0.00 | 0.10 | 0.10 | 81 | 1019.9 |
| 20260906033707 | 13 | 324 | 11.3 | 16.1 | 0.00 | 0.10 | 0.10 | 81 | 1019.7 |
| 20260906033207 | 13 | 325 | 11.3 | 16.1 | 0.00 | 0.10 | 0.10 | 81 | 1019.8 |
| 20260906032704 | 13 | 333 | 14.5 | 16.1 | 0.00 | 0.10 | 0.10 | 81 | 1019.6 |
| 20260906032158 | 13 | 301 | 11.3 | 16.1 | 0.00 | 0.10 | 0.10 | 80 | 1019.5 |
| 20260906031653 | 13 | 339 | 11.3 | 14.5 | 0.00 | 0.10 | 0.10 | 80 | 1019.5 |
| 20260906031149 | 13 | 326 | 8.0 | 14.5 | 0.00 | 0.10 | 0.10 | 80 | 1019.7 |
| 20260906030648 | 13 | 327 | 9.7 | 12.9 | 0.00 | 0.10 | 0.10 | 80 | 1019.4 |
| 20260906030144 | 13 | 348 | 9.7 | 12.9 | 0.00 | 0.10 | 0.10 | 79 | 1019.2 |
| 20260906025643 | 13 | 320 | 12.9 | 16.1 | 0.00 | 0.10 | 0.10 | 78 | 1019.1 |
| 20260906025142 | 13 | 332 | 8.0 | 17.7 | 0.00 | 0.10 | 0.10 | 77 | 1019.0 |
| 20260906024637 | 13 | 339 | 14.5 | 17.7 | 0.00 | 0.10 | 0.10 | 77 | 1019.2 |
| 20260906024136 | 14 | 358 | 12.9 | 17.7 | 0.00 | 0.10 | 0.10 | 77 | 1019.1 |
| 20260906023633 | 14 | 354 | 9.7 | 17.7 | 0.00 | 0.10 | 0.10 | 77 | 1019.0 |
| 20260906023132 | 14 | 5 | 11.3 | 17.7 | 0.00 | 0.10 | 0.10 | 76 | 1018.9 |
| 20260906022627 | 14 | 345 | 14.5 | 20.9 | 0.00 | 0.10 | 0.10 | 76 | 1019.0 |
| 20260906022123 | 15 | 356 | 12.9 | 24.1 | 0.00 | 0.10 | 0.10 | 75 | 1019.0 |
| 20260906021619 | 15 | 1 | 16.1 | 22.5 | 0.00 | 0.10 | 0.10 | 74 | 1018.9 |
| 20260906021117 | 15 | 0 | 12.9 | 16.1 | 0.00 | 0.10 | 0.10 | 73 | 1019.0 |
| 20260906020617 | 15 | 353 | 16.1 | 17.7 | 0.00 | 0.10 | 0.10 | 73 | 1019.0 |
| 20260906020112 | 15 | 344 | 12.9 | 17.7 | 0.00 | 0.10 | 0.10 | 72 | 1018.9 |
| 20260906015606 | 15 | 4 | 12.9 | 20.9 | 0.00 | 0.10 | 0.10 | 72 | 1018.8 |
| 20260906015105 | 15 | 340 | 16.1 | 17.7 | 0.00 | 0.10 | 0.10 | 72 | 1018.7 |
| 20260906014600 | 15 | 325 | 6.4 | 16.1 | 0.00 | 0.10 | 0.10 | 71 | 1018.7 |
| 20260906014056 | 15 | 334 | 9.7 | 17.7 | 0.00 | 0.10 | 0.10 | 70 | 1018.6 |
| 20260906013552 | 16 | 332 | 12.9 | 22.5 | 0.00 | 0.10 | 0.10 | 69 | 1018.8 |
| 20260906013047 | 16 | 341 | 12.9 | 20.9 | 0.00 | 0.10 | 0.10 | 69 | 1018.6 |
| 20260906012542 | 16 | 343 | 9.7 | 16.1 | 0.00 | 0.10 | 0.10 | 69 | 1018.5 |
| 20260906012041 | 16 | 352 | 8.0 | 22.5 | 0.00 | 0.10 | 0.10 | 67 | 1018.4 |
| 20260906011537 | 16 | 339 | 12.9 | 20.9 | 0.00 | 0.10 | 0.10 | 68 | 1018.5 |
| 20260906011037 | 16 | 347 | 11.3 | 20.9 | 0.00 | 0.10 | 0.10 | 68 | 1018.6 |
| 20260906010533 | 16 | 330 | 16.1 | 24.1 | 0.00 | 0.10 | 0.10 | 67 | 1018.5 |
| 20260906010029 | 17 | 308 | 12.9 | 20.9 | 0.00 | 0.10 | 0.10 | 67 | 1018.7 |
| 20260906005528 | 17 | 304 | 12.9 | 27.4 | 0.00 | 0.10 | 0.10 | 67 | 1018.6 |
| 20260906005027 | 17 | 7 | 14.5 | 24.1 | 0.00 | 0.10 | 0.10 | 66 | 1018.5 |
| 20260906004526 | 17 | 323 | 24.1 | 35.4 | 0.00 | 0.10 | 0.10 | 66 | 1018.5 |
| 20260906004021 | 17 | 281 | 17.7 | 29.0 | 0.00 | 0.10 | 0.10 | 66 | 1018.4 |
| 20260906003516 | 17 | 7 | 14.5 | 20.9 | 0.00 | 0.10 | 0.10 | 66 | 1018.3 |
| 20260906003013 | 17 | 337 | 22.5 | 27.4 | 0.00 | 0.10 | 0.10 | 67 | 1018.6 |
| 20260906002507 | 17 | 310 | 19.3 | 29.0 | 0.00 | 0.10 | 0.10 | 67 | 1018.7 |
| 20260906002002 | 17 | 347 | 17.7 | 27.4 | 0.00 | 0.10 | 0.10 | 66 | 1018.7 |
| 20260906001458 | 17 | 337 | 16.1 | 24.1 | 0.00 | 0.10 | 0.10 | 66 | 1018.8 |
| 20260906000952 | 18 | 352 | 19.3 | 27.4 | 0.00 | 0.10 | 0.10 | 66 | 1018.7 |
| 20260906000448 | 18 | 313 | 17.7 | 24.1 | 0.00 | 0.10 | 0.10 | 65 | 1018.7 |
| 20260905235941 | 18 | 357 | 12.9 | 24.1 | 0.00 | 0.10 | 0.10 | 63 | 1018.5 |
| 20260905235436 | 18 | 352 | 17.7 | 24.1 | 0.00 | 0.10 | 0.10 | 63 | 1018.7 |
| 20260905234931 | 18 | 334 | 17.7 | 22.5 | 0.00 | 0.10 | 0.10 | 62 | 1018.8 |
| 20260905234427 | 18 | 324 | 17.7 | 27.4 | 0.00 | 0.10 | 0.10 | 62 | 1018.8 |
| 20260905233921 | 18 | 336 | 16.1 | 27.4 | 0.00 | 0.10 | 0.10 | 64 | 1018.7 |
| 20260905233416 | 18 | 318 | 17.7 | 27.4 | 0.00 | 0.10 | 0.10 | 64 | 1018.5 |
| 20260905232915 | 18 | 309 | 19.3 | 24.1 | 0.00 | 0.10 | 0.10 | 63 | 1018.4 |
| 20260905232411 | 18 | 302 | 16.1 | 25.7 | 0.00 | 0.10 | 0.10 | 63 | 1018.5 |
| 20260905231907 | 18 | 333 | 17.7 | 24.1 | 0.00 | 0.10 | 0.10 | 62 | 1018.5 |
| 20260905231403 | 19 | 341 | 14.5 | 27.4 | 0.00 | 0.10 | 0.10 | 59 | 1018.5 |
| 20260905230859 | 19 | 1 | 12.9 | 32.2 | 0.00 | 0.10 | 0.10 | 60 | 1018.5 |
| 20260905230356 | 19 | 327 | 19.3 | 25.7 | 0.00 | 0.10 | 0.10 | 59 | 1018.7 |